DW5254 Weather Reports


time (UTC)temp
F
wind
direction
speed
knots
gust
knots
rain 1hr
in
rain 24hr
in
rain mn
in
humidity
%
barometer
mb
20260510174546 66 32 3.5 8.7 0.00 0.09 0.09 52 1018.3
20260510173054 67 39 1.7 9.6 0.00 0.09 0.09 51 1018.5
20260510171551 66 39 7.0 10.4 0.00 0.09 0.09 59 1018.6
20260510170142 66 20 6.1 10.4 0.00 0.09 0.09 57 1018.8
20260510164546 65 51 8.7 11.3 0.00 0.09 0.09 53 1018.8
20260510163039 65 38 3.5 7.8 0.00 0.09 0.09 53 1018.7
20260510161535 64 39 4.3 10.4 0.00 0.09 0.09 55 1018.4
20260510160035 64 17 5.2 8.7 0.00 0.09 0.09 65 1018.4
20260510154528 63 4 3.5 8.7 0.00 0.09 0.09 68 1018.1
20260510153036 63 28 5.2 10.4 0.00 0.09 0.09 64 1018.1
20260510151526 63 29 4.3 9.6 0.00 0.09 0.09 65 1017.8
20260510150024 62 44 6.1 10.4 0.00 0.09 0.09 65 1017.5
20260510144528 61 49 7.0 11.3 0.00 0.09 0.09 66 1017.5
20260510143031 61 25 5.2 11.3 0.00 0.09 0.09 66 1017.5
20260510141521 61 45 6.1 9.6 0.00 0.09 0.09 66 1017.4
20260510140019 60 28 6.1 8.7 0.00 0.09 0.09 68 1017.5
20260510134517 60 32 7.0 9.6 0.00 0.09 0.09 67 1017.4
20260510133032 59 38 5.2 8.7 0.00 0.09 0.09 68 1017.1
20260510131513 59 13 4.3 7.8 0.00 0.09 0.09 72 1017.0
20260510130010 58 28 3.5 7.0 0.00 0.09 0.09 74 1016.6
20260510124509 57 23 2.6 6.1 0.00 0.09 0.09 76 1016.2
20260510123008 56 6 2.6 5.2 0.00 0.09 0.09 79 1016.2
20260510121505 56 358 1.7 3.5 0.00 0.09 0.09 80 1016.1
20260510120003 55 354 0.9 2.6 0.00 0.09 0.09 82 1015.6
20260510114604 54 338 1.7 2.6 0.00 0.09 0.09 82 1015.3
20260510113056 54 344 1.7 6.1 0.00 0.09 0.09 83 1014.9
20260510111600 54 348 2.6 4.3 0.00 0.09 0.09 83 1014.8
20260510110051 54 313 2.6 6.1 0.00 0.09 0.09 84 1014.3
20260510104548 54 339 3.5 6.1 0.00 0.09 0.09 85 1014.0
20260510103045 54 324 3.5 5.2 0.01 0.09 0.09 85 1013.6
20260510101544 54 314 1.7 3.5 0.01 0.09 0.09 86 1013.3
20260510100042 54 307 0.9 4.3 0.01 0.09 0.09 87 1013.1
20260510094543 55 310 2.6 4.3 0.01 0.09 0.09 87 1012.6
20260510093040 54 329 0.0 1.7 0.00 0.08 0.08 90 1012.5
20260510091539 54 329 0.0 0.9 0.00 0.08 0.08 91 1012.4
20260510090037 55 329 0.0 0.9 0.00 0.08 0.08 89 1012.0
20260510084535 55 331 0.0 2.6 0.00 0.08 0.08 90 1011.9
20260510083036 56 319 2.6 5.2 0.00 0.08 0.08 91 1011.8
20260510081541 55 356 0.9 2.6 0.00 0.08 0.08 91 1011.5
20260510080032 56 358 0.0 0.0 0.00 0.08 0.08 90 1011.4
20260510074528 57 358 0.0 1.7 0.00 0.08 0.08 89 1011.5
20260510073032 57 1 0.9 1.7 0.02 0.08 0.08 88 1011.5
20260510071525 58 1 0.0 2.6 0.04 0.08 0.08 86 1011.6
20260510070023 58 335 2.6 5.2 0.04 0.08 0.08 85 1012.1
20260510064520 59 343 3.5 7.0 0.06 0.09 0.08 84 1012.5
20260510063025 60 309 6.1 10.4 0.06 0.07 0.06 83 1012.8
20260510061520 60 300 6.1 9.6 0.04 0.05 0.04 87 1013.2
20260510060019 60 302 7.0 13.0 0.04 0.05 0.04 86 1012.9
20260510054513 61 298 7.0 13.0 0.02 0.16 0.02 82 1012.7
20260510053011 62 312 5.2 17.4 0.00 0.14 0.00 78 1012.4
20260510051502 63 236 2.6 7.0 0.00 0.14 0.00 76 1011.0
20260510050059 62 174 0.9 2.6 0.00 0.14 0.00 76 1010.1
20260510044558 63 226 0.0 0.0 0.00 0.25 0.14 75 1010.0
20260510043108 63 226 0.0 0.0 0.00 0.25 0.14 74 1010.1
20260510041558 63 226 0.0 1.7 0.00 0.25 0.14 73 1010.1
20260510040110 63 310 0.0 0.0 0.00 0.25 0.14 73 1010.0
20260510034600 62 310 0.0 0.0 0.00 0.38 0.14 74 1009.9
20260510033056 63 310 0.0 0.0 0.00 0.38 0.14 72 1010.1
20260510031559 64 310 0.0 0.9 0.00 0.38 0.14 72 1010.0
20260510030054 64 310 0.0 0.0 0.00 0.38 0.14 72 1010.0
20260510024553 64 305 0.0 0.0 0.00 0.44 0.14 73 1009.9
20260510023053 64 305 0.0 0.0 0.00 0.44 0.14 72 1010.0
20260510021551 64 305 0.0 0.0 0.00 0.44 0.14 72 1009.7
20260510020050 64 306 0.0 0.0 0.00 0.44 0.14 72 1009.4
20260510014549 65 306 0.0 0.0 0.00 0.52 0.14 70 1009.1
20260510013049 66 306 0.0 0.0 0.00 0.52 0.14 69 1009.0
20260510011548 68 305 0.0 0.0 0.00 0.52 0.14 66 1008.7
20260510010048 69 306 0.0 0.9 0.00 0.52 0.14 64 1008.5
20260510004546 70 306 0.0 0.0 0.00 0.53 0.14 62 1008.5
20260510003049 72 306 0.0 0.9 0.00 0.53 0.14 61 1008.2
20260510001551 74 305 0.0 3.5 0.00 0.53 0.14 59 1008.2
20260510000046 74 309 1.7 6.1 0.00 0.53 0.14 58 1008.0
20260509234546 75 307 3.5 7.8 0.00 0.53 0.14 55 1007.9
20260509233050 75 312 3.5 7.0 0.00 0.53 0.14 57 1008.0
20260509231545 75 307 6.1 12.2 0.00 0.53 0.14 54 1007.9
20260509230043 75 303 6.1 10.4 0.00 0.53 0.14 55 1007.7
20260509224553 76 309 3.5 11.3 0.00 0.54 0.14 50 1007.7
20260509223041 76 302 6.1 11.3 0.00 0.54 0.14 51 1007.7
20260509221556 76 307 6.1 11.3 0.00 0.54 0.14 54 1007.7
20260509220039 76 305 7.0 13.0 0.00 0.54 0.14 52 1007.6
20260509214537 76 303 4.3 13.0 0.00 0.54 0.14 55 1007.5
20260509213036 75 317 7.0 10.4 0.00 0.54 0.14 60 1007.6
20260509211532 77 58 0.9 6.1 0.00 0.54 0.14 66 1007.7
20260509210033 75 244 1.7 10.4 0.00 0.54 0.14 66 1007.6
20260509204530 76 218 2.6 8.7 0.00 0.54 0.14 66 1007.7
20260509203028 76 152 0.9 7.8 0.00 0.54 0.14 68 1007.7
20260509201528 74 315 5.2 13.0 0.00 0.54 0.14 66 1007.9
20260509200025 75 169 3.5 8.7 0.00 0.54 0.14 66 1007.9
20260509194623 74 186 1.7 10.4 0.00 0.54 0.14 67 1008.1
20260509193021 74 304 1.7 14.8 0.00 0.54 0.14 67 1008.1
20260509191520 74 240 3.5 12.2 0.00 0.54 0.14 67 1008.2
20260509190019 73 314 2.6 9.6 0.00 0.54 0.14 67 1008.3
20260509184522 73 176 2.6 9.6 0.00 0.54 0.14 67 1008.3
20260509183015 71 281 4.3 10.4 0.00 0.54 0.14 69 1008.2
20260509181509 70 81 4.3 14.8 0.00 0.54 0.14 69 1008.2
20260509180007 70 136 5.2 12.2 0.00 0.54 0.14 71 1008.3